Location: A�t Bou Chrif
(32.7193°N, 5.2385°W)
Time: 00:42:53
(UTC+00:00)

Sich 1 - Pass Details

Date: 08 August 2020
Orbit: 593 x 626 km, 82.5° (Epoch: 18 September)

Event Time Altitude Azimuth Distance (km) Brightness Sun altitude
Exits shadow 19:57:38 12° 130° (SE) 1,878 4.9 -9.6°
Maximum altitude 20:00:23 19° 88° (E) 1,471 4.5 -10.1°
Drops below altitude 10° 20:03:33 10° 42° (NE) 2,002 5.5 -10.7°
Sets 20:06:18 0° 25° (NNE) 2,915 6.5 -11.2°
